Time,TemperatureF,DewpointF,PressureIn,WindDirection,WindDirectionDegrees,WindSpeedMPH,WindSpeedGustMPH,Humidity,HourlyPrecipIn,Conditions,Clouds,dailyrainin,SolarRadiationWatts/m^2,SoftwareType,DateUTC
2013-03-01 00:01:00,26.0,6.0,-100.00,NNW,337,11.0,22.0,41,0.00,,,0.00,0.000000,,2013-03-01 07:01:00,
2013-03-01 00:11:00,26.0,6.0,-100.00,NNW,337,11.0,22.0,41,0.00,,,0.00,0.000000,,2013-03-01 07:11:00,
2013-03-01 00:21:00,26.0,6.0,-100.00,NNW,337,11.0,22.0,41,0.00,,,0.00,0.000000,,2013-03-01 07:21:00,
2013-03-01 00:32:00,26.0,6.0,-100.00,NNW,337,11.0,22.0,41,0.00,,,0.00,0.000000,,2013-03-01 07:32:00,
2013-03-01 00:40:00,27.0,6.0,-100.00,NNW,337,11.0,21.0,40,0.00,,,0.00,0.000000,,2013-03-01 07:40:00,
2013-03-01 01:01:00,27.0,6.0,-100.00,NNW,337,11.0,21.0,40,0.00,,,0.00,0.000000,,2013-03-01 08:01:00,
2013-03-01 01:11:00,27.0,6.0,-100.00,NNW,337,11.0,21.0,40,0.00,,,0.00,0.000000,,2013-03-01 08:11:00,
2013-03-01 01:22:00,27.0,6.0,-100.00,NNW,337,11.0,21.0,40,0.00,,,0.00,0.000000,,2013-03-01 08:22:00,
2013-03-01 01:32:00,27.0,6.0,-100.00,NNW,337,11.0,21.0,40,0.00,,,0.00,0.000000,,2013-03-01 08:32:00,
2013-03-01 01:40:00,28.0,8.0,-100.00,NNW,336,19.0,29.0,42,0.00,,,-99.99,0.000000,,2013-03-01 08:40:00,
2013-03-01 02:02:00,28.0,8.0,-100.00,NNW,336,19.0,29.0,42,0.00,,,-99.99,0.000000,,2013-03-01 09:02:00,
2013-03-01 02:11:00,28.0,8.0,-100.00,NNW,336,19.0,29.0,42,0.00,,,-99.99,0.000000,,2013-03-01 09:11:00,
2013-03-01 02:22:00,28.0,8.0,-100.00,NNW,336,19.0,29.0,42,0.00,,,-99.99,0.000000,,2013-03-01 09:22:00,
2013-03-01 02:31:00,28.0,8.0,-100.00,NNW,336,19.0,29.0,42,0.00,,,-99.99,0.000000,,2013-03-01 09:31:00,
2013-03-01 02:40:00,25.0,7.0,-100.00,NW,324,11.0,30.0,46,0.00,,,0.00,0.000000,,2013-03-01 09:40:00,
2013-03-01 03:01:00,25.0,7.0,-100.00,NW,324,11.0,30.0,46,0.00,,,0.00,0.000000,,2013-03-01 10:01:00,
2013-03-01 03:11:00,25.0,7.0,-100.00,NW,324,11.0,30.0,46,0.00,,,0.00,0.000000,,2013-03-01 10:11:00,
2013-03-01 03:21:00,25.0,7.0,-100.00,NW,324,11.0,30.0,46,0.00,,,0.00,0.000000,,2013-03-01 10:21:00,
2013-03-01 03:32:00,25.0,7.0,-100.00,NW,324,11.0,30.0,46,0.00,,,0.00,0.000000,,2013-03-01 10:32:00,
2013-03-01 03:40:00,27.0,9.0,-100.00,NNW,327,17.0,29.0,47,0.00,,,0.00,0.000000,,2013-03-01 10:40:00,
2013-03-01 04:01:00,27.0,9.0,-100.00,NNW,327,17.0,29.0,47,0.00,,,0.00,0.000000,,2013-03-01 11:01:00,
2013-03-01 04:11:00,27.0,9.0,-100.00,NNW,327,17.0,29.0,47,0.00,,,0.00,0.000000,,2013-03-01 11:11:00,
2013-03-01 04:22:00,27.0,9.0,-100.00,NNW,327,17.0,29.0,47,0.00,,,0.00,0.000000,,2013-03-01 11:22:00,
2013-03-01 04:32:00,27.0,9.0,-100.00,NNW,327,17.0,29.0,47,0.00,,,0.00,0.000000,,2013-03-01 11:32:00,
2013-03-01 04:40:00,28.0,10.0,-100.00,NNW,334,15.0,30.0,46,0.00,,,0.00,0.000000,,2013-03-01 11:40:00,
2013-03-01 05:01:00,28.0,10.0,-100.00,NNW,334,15.0,30.0,46,0.00,,,0.00,0.000000,,2013-03-01 12:01:00,
2013-03-01 05:11:00,28.0,10.0,-100.00,NNW,334,15.0,30.0,46,0.00,,,0.00,0.000000,,2013-03-01 12:11:00,
2013-03-01 05:21:00,28.0,10.0,-100.00,NNW,334,15.0,30.0,46,0.00,,,0.00,0.000000,,2013-03-01 12:21:00,
2013-03-01 05:32:00,28.0,10.0,-100.00,NNW,334,15.0,30.0,46,0.00,,,0.00,0.000000,,2013-03-01 12:32:00,
2013-03-01 05:40:00,26.0,10.0,-100.00,NW,319,15.0,23.0,51,0.00,,,0.00,0.000000,,2013-03-01 12:40:00,
2013-03-01 06:01:00,26.0,10.0,-100.00,NW,319,15.0,23.0,51,0.00,,,0.00,0.000000,,2013-03-01 13:01:00,
2013-03-01 06:11:00,26.0,10.0,-100.00,NW,319,15.0,23.0,51,0.00,,,0.00,0.000000,,2013-03-01 13:11:00,
2013-03-01 06:21:00,26.0,10.0,-100.00,NW,319,15.0,23.0,51,0.00,,,0.00,0.000000,,2013-03-01 13:21:00,
2013-03-01 06:32:00,26.0,10.0,-100.00,NW,319,15.0,23.0,51,0.00,,,0.00,0.000000,,2013-03-01 13:32:00,
2013-03-01 06:40:00,25.0,10.0,-100.00,NNW,327,11.0,29.0,52,0.00,,,0.00,0.000000,,2013-03-01 13:40:00,
2013-03-01 07:01:00,25.0,10.0,-100.00,NNW,327,11.0,29.0,52,0.00,,,0.00,0.000000,,2013-03-01 14:01:00,
2013-03-01 07:11:00,25.0,10.0,-100.00,NNW,327,11.0,29.0,52,0.00,,,0.00,0.000000,,2013-03-01 14:11:00,
2013-03-01 07:21:00,25.0,10.0,-100.00,NNW,327,11.0,29.0,52,0.00,,,0.00,0.000000,,2013-03-01 14:21:00,
2013-03-01 07:32:00,25.0,10.0,-100.00,NNW,327,11.0,29.0,52,0.00,,,0.00,0.000000,,2013-03-01 14:32:00,
2013-03-01 07:40:00,28.0,12.0,-100.00,NW,324,15.0,28.0,50,0.00,,,0.00,17.000000,,2013-03-01 14:40:00,
2013-03-01 08:01:00,28.0,12.0,-100.00,NW,324,15.0,28.0,50,0.00,,,0.00,17.000000,,2013-03-01 15:01:00,
2013-03-01 08:11:00,28.0,12.0,-100.00,NW,324,15.0,28.0,50,0.00,,,0.00,17.000000,,2013-03-01 15:11:00,
2013-03-01 08:21:00,28.0,12.0,-100.00,NW,324,15.0,28.0,50,0.00,,,0.00,17.000000,,2013-03-01 15:21:00,
2013-03-01 08:31:00,28.0,12.0,-100.00,NW,324,15.0,28.0,50,0.00,,,0.00,17.000000,,2013-03-01 15:31:00,
2013-03-01 08:40:00,32.0,14.0,-100.00,North,351,10.0,21.0,47,0.00,,,0.00,220.000000,,2013-03-01 15:40:00,
2013-03-01 09:01:00,32.0,14.0,-100.00,North,351,10.0,21.0,47,0.00,,,0.00,220.000000,,2013-03-01 16:01:00,
2013-03-01 09:11:00,32.0,14.0,-100.00,North,351,10.0,21.0,47,0.00,,,0.00,220.000000,,2013-03-01 16:11:00,
2013-03-01 09:21:00,32.0,14.0,-100.00,North,351,10.0,21.0,47,0.00,,,0.00,220.000000,,2013-03-01 16:21:00,
2013-03-01 09:31:00,32.0,14.0,-100.00,North,351,10.0,21.0,47,0.00,,,0.00,220.000000,,2013-03-01 16:31:00,
2013-03-01 09:40:00,35.0,17.0,-100.00,NNW,334,11.0,19.0,47,0.00,,,0.00,486.000000,,2013-03-01 16:40:00,
2013-03-01 10:01:00,35.0,17.0,-100.00,NNW,334,11.0,19.0,47,0.00,,,0.00,486.000000,,2013-03-01 17:01:00,
2013-03-01 10:11:00,35.0,17.0,-100.00,NNW,334,11.0,19.0,47,0.00,,,0.00,486.000000,,2013-03-01 17:11:00,
2013-03-01 10:21:00,35.0,17.0,-100.00,NNW,334,11.0,19.0,47,0.00,,,0.00,486.000000,,2013-03-01 17:21:00,
2013-03-01 10:31:00,35.0,17.0,-100.00,NNW,334,11.0,19.0,47,0.00,,,0.00,486.000000,,2013-03-01 17:31:00,
2013-03-01 10:40:00,39.0,18.0,-100.00,NNW,327,17.0,29.0,42,0.00,,,0.00,692.000000,,2013-03-01 17:40:00,
2013-03-01 11:01:00,39.0,18.0,-100.00,NNW,327,17.0,29.0,42,0.00,,,0.00,692.000000,,2013-03-01 18:01:00,
2013-03-01 11:12:00,39.0,18.0,-100.00,NNW,327,17.0,29.0,42,0.00,,,0.00,692.000000,,2013-03-01 18:12:00,
2013-03-01 11:22:00,39.0,18.0,-100.00,NNW,327,17.0,29.0,42,0.00,,,0.00,692.000000,,2013-03-01 18:22:00,
2013-03-01 11:31:00,39.0,18.0,-100.00,NNW,327,17.0,29.0,42,0.00,,,0.00,692.000000,,2013-03-01 18:31:00,
2013-03-01 11:40:00,42.0,19.0,-100.00,NNW,329,15.0,28.0,39,0.00,,,0.00,843.000000,,2013-03-01 18:40:00,
2013-03-01 12:01:00,42.0,19.0,-100.00,NNW,329,15.0,28.0,39,0.00,,,0.00,843.000000,,2013-03-01 19:01:00,
2013-03-01 12:11:00,42.0,19.0,-100.00,NNW,329,15.0,28.0,39,0.00,,,0.00,843.000000,,2013-03-01 19:11:00,
2013-03-01 12:21:00,42.0,19.0,-100.00,NNW,329,15.0,28.0,39,0.00,,,0.00,843.000000,,2013-03-01 19:21:00,
2013-03-01 12:31:00,42.0,19.0,-100.00,NNW,329,15.0,28.0,39,0.00,,,0.00,843.000000,,2013-03-01 19:31:00,
2013-03-01 12:40:00,42.0,19.0,-100.00,NW,322,16.0,28.0,39,0.00,,,-99.99,925.000000,,2013-03-01 19:40:00,
2013-03-01 13:01:00,42.0,19.0,-100.00,NW,322,16.0,28.0,39,0.00,,,-99.99,925.000000,,2013-03-01 20:01:00,
2013-03-01 13:11:00,42.0,19.0,-100.00,NW,322,16.0,28.0,39,0.00,,,-99.99,925.000000,,2013-03-01 20:11:00,
2013-03-01 13:21:00,42.0,19.0,-100.00,NW,322,16.0,28.0,39,0.00,,,-99.99,925.000000,,2013-03-01 20:21:00,
2013-03-01 13:31:00,42.0,19.0,-100.00,NW,322,16.0,28.0,39,0.00,,,-99.99,925.000000,,2013-03-01 20:31:00,
2013-03-01 13:40:00,43.0,19.0,-100.00,NW,321,15.0,27.0,38,0.00,,,0.00,934.000000,,2013-03-01 20:40:00,
2013-03-01 14:01:00,43.0,19.0,-100.00,NW,321,15.0,27.0,38,0.00,,,0.00,934.000000,,2013-03-01 21:01:00,
2013-03-01 14:11:00,43.0,19.0,-100.00,NW,321,15.0,27.0,38,0.00,,,0.00,934.000000,,2013-03-01 21:11:00,
2013-03-01 14:21:00,43.0,19.0,-100.00,NW,321,15.0,27.0,38,0.00,,,0.00,934.000000,,2013-03-01 21:21:00,
2013-03-01 14:31:00,43.0,19.0,-100.00,NW,321,15.0,27.0,38,0.00,,,0.00,934.000000,,2013-03-01 21:31:00,
2013-03-01 14:40:00,43.0,20.0,-100.00,NW,318,14.0,29.0,39,0.00,,,0.00,868.000000,,2013-03-01 21:40:00,
2013-03-01 15:01:00,43.0,20.0,-100.00,NW,318,14.0,29.0,39,0.00,,,0.00,868.000000,,2013-03-01 22:01:00,
2013-03-01 15:11:00,43.0,20.0,-100.00,NW,318,14.0,29.0,39,0.00,,,0.00,868.000000,,2013-03-01 22:11:00,
2013-03-01 15:21:00,43.0,20.0,-100.00,NW,318,14.0,29.0,39,0.00,,,0.00,868.000000,,2013-03-01 22:21:00,
2013-03-01 15:31:00,43.0,20.0,-100.00,NW,318,14.0,29.0,39,0.00,,,0.00,868.000000,,2013-03-01 22:31:00,
2013-03-01 15:40:00,43.0,20.0,-100.00,NW,318,13.0,25.0,40,0.00,,,0.00,710.000000,,2013-03-01 22:40:00,
2013-03-01 16:01:00,43.0,20.0,-100.00,NW,318,13.0,25.0,40,0.00,,,0.00,710.000000,,2013-03-01 23:01:00,
2013-03-01 16:11:00,43.0,20.0,-100.00,NW,318,13.0,25.0,40,0.00,,,0.00,710.000000,,2013-03-01 23:11:00,
2013-03-01 16:21:00,43.0,20.0,-100.00,NW,318,13.0,25.0,40,0.00,,,0.00,710.000000,,2013-03-01 23:21:00,
2013-03-01 16:31:00,43.0,20.0,-100.00,NW,318,13.0,25.0,40,0.00,,,0.00,710.000000,,2013-03-01 23:31:00,
2013-03-01 16:40:00,41.0,20.0,-100.00,WNW,303,14.0,25.0,42,0.00,,,0.00,514.000000,,2013-03-01 23:40:00,
2013-03-01 17:01:00,41.0,20.0,-100.00,WNW,303,14.0,25.0,42,0.00,,,0.00,514.000000,,2013-03-02 00:01:00,
2013-03-01 17:11:00,41.0,20.0,-100.00,WNW,303,14.0,25.0,42,0.00,,,0.00,514.000000,,2013-03-02 00:11:00,
2013-03-01 17:21:00,41.0,20.0,-100.00,WNW,303,14.0,25.0,42,0.00,,,0.00,514.000000,,2013-03-02 00:21:00,
2013-03-01 17:31:00,41.0,20.0,-100.00,WNW,303,14.0,25.0,42,0.00,,,0.00,514.000000,,2013-03-02 00:31:00,
2013-03-01 17:40:00,37.0,19.0,-100.00,NW,315,14.0,24.0,47,0.00,,,0.00,217.000000,,2013-03-02 00:40:00,
2013-03-01 18:01:00,37.0,19.0,-100.00,NW,315,14.0,24.0,47,0.00,,,0.00,217.000000,,2013-03-02 01:01:00,
2013-03-01 18:11:00,37.0,19.0,-100.00,NW,315,14.0,24.0,47,0.00,,,0.00,217.000000,,2013-03-02 01:11:00,
2013-03-01 18:21:00,37.0,19.0,-100.00,NW,315,14.0,24.0,47,0.00,,,0.00,217.000000,,2013-03-02 01:21:00,
2013-03-01 18:31:00,37.0,19.0,-100.00,NW,315,14.0,24.0,47,0.00,,,0.00,217.000000,,2013-03-02 01:31:00,
2013-03-01 18:40:00,34.0,18.0,-100.00,NW,318,11.0,20.0,52,0.00,,,0.00,11.000000,,2013-03-02 01:40:00,
2013-03-01 19:01:00,34.0,18.0,-100.00,NW,318,11.0,20.0,52,0.00,,,0.00,11.000000,,2013-03-02 02:01:00,
2013-03-01 19:11:00,34.0,18.0,-100.00,NW,318,11.0,20.0,52,0.00,,,0.00,11.000000,,2013-03-02 02:11:00,
2013-03-01 19:21:00,34.0,18.0,-100.00,NW,318,11.0,20.0,52,0.00,,,0.00,11.000000,,2013-03-02 02:21:00,
2013-03-01 19:31:00,34.0,18.0,-100.00,NW,318,11.0,20.0,52,0.00,,,0.00,11.000000,,2013-03-02 02:31:00,
2013-03-01 20:40:00,35.0,17.0,-100.00,NW,325,13.0,23.0,48,-99.99,,,0.00,0.000000,,2013-03-02 03:40:00,
2013-03-01 21:01:00,35.0,17.0,-100.00,NW,325,13.0,23.0,48,-99.99,,,0.00,0.000000,,2013-03-02 04:01:00,
2013-03-01 21:11:00,35.0,17.0,-100.00,NW,325,13.0,23.0,48,-99.99,,,0.00,0.000000,,2013-03-02 04:11:00,
2013-03-01 21:21:00,35.0,17.0,-100.00,NW,325,13.0,23.0,48,-99.99,,,0.00,0.000000,,2013-03-02 04:21:00,
2013-03-01 21:31:00,35.0,17.0,-100.00,NW,325,13.0,23.0,48,-99.99,,,0.00,0.000000,,2013-03-02 04:31:00,
2013-03-01 21:40:00,34.0,17.0,-100.00,NW,324,13.0,21.0,50,0.00,,,0.00,0.000000,,2013-03-02 04:40:00,
2013-03-01 22:01:00,34.0,17.0,-100.00,NW,324,13.0,21.0,50,0.00,,,0.00,0.000000,,2013-03-02 05:01:00,
2013-03-01 22:12:00,34.0,17.0,-100.00,NW,324,13.0,21.0,50,0.00,,,0.00,0.000000,,2013-03-02 05:12:00,
2013-03-01 22:22:00,34.0,17.0,-100.00,NW,324,13.0,21.0,50,0.00,,,0.00,0.000000,,2013-03-02 05:22:00,
2013-03-01 22:31:00,34.0,17.0,-100.00,NW,324,13.0,21.0,50,0.00,,,0.00,0.000000,,2013-03-02 05:31:00,
2013-03-01 22:40:00,32.0,18.0,-100.00,NNW,337,8.0,21.0,55,0.00,,,0.00,0.000000,,2013-03-02 05:40:00,
2013-03-01 23:01:00,32.0,18.0,-100.00,NNW,337,8.0,21.0,55,0.00,,,0.00,0.000000,,2013-03-02 06:01:00,
2013-03-01 23:11:00,32.0,18.0,-100.00,NNW,337,8.0,21.0,55,0.00,,,0.00,0.000000,,2013-03-02 06:11:00,
2013-03-01 23:21:00,32.0,18.0,-100.00,NNW,337,8.0,21.0,55,0.00,,,0.00,0.000000,,2013-03-02 06:21:00,
2013-03-01 23:31:00,32.0,18.0,-100.00,NNW,337,8.0,21.0,55,0.00,,,0.00,0.000000,,2013-03-02 06:31:00,
2013-03-01 23:40:00,32.0,17.0,-100.00,NNW,331,9.0,17.0,53,0.00,,,0.00,0.000000,,2013-03-02 06:40:00,